QPF
0.04 0.04 0.07 0.07 0.04 0.03 0.04 0.06 0.08 0.09 0.07 0.05 0.05 0.04 0.05 0.07 0.05 0.04 0.03 0.01 0.01 0.01 0.00 0.00 0.00 0.00 0.00 0.00 0.00 0.00 0.00 0.00 0.00 0.00 0.00 0.00 0.00 0.00 0.00 0.00 0.00 0.00 0.00 0.00
0.03 0.05 0.05 0.03 0.02 0.02 0.04 0.06 0.08 0.07 0.06 0.05 0.04 0.03 0.05 0.06 0.05 0.03 0.03 0.01 0.01 0.01 0.00 0.00 0.00 0.00 0.00 0.00 0.00 0.00 0.00 0.00 0.00 0.00 0.00 0.00 0.00 0.00 0.00 0.00 0.00 0.00 0.00 0.00
0.02 0.03 0.02 0.02 0.02 0.02 0.03 0.05 0.06 0.06 0.05 0.05 0.04 0.04 0.03 0.04 0.03 0.02 0.01 0.01 0.01 0.01 0.01 0.01 0.01 0.00 0.00 0.00 0.00 0.00 0.00 0.00 0.00 0.00 0.00 0.00 0.00 0.00 0.00 0.00 0.00 0.00 0.00 0.00
0.02 0.01 0.02 0.02 0.03 0.03 0.04 0.04 0.04 0.05 0.06 0.06 0.04 0.05 0.03 0.03 0.04 0.02 0.01 0.01 0.01 0.01 0.01 0.01 0.00 0.00 0.00 0.00 0.00 0.00 0.00 0.00 0.00 0.00 0.00 0.00 0.00 0.00 0.00 0.00 0.00 0.00 0.00 0.00
0.01 0.01 0.01 0.02 0.02 0.02 0.02 0.03 0.04 0.04 0.04 0.04 0.02 0.04 0.04 0.03 0.04 0.02 0.01 0.01 0.01 0.01 0.01 0.00 0.00 0.00 0.00 0.00 0.00 0.00 0.00 0.00 0.00 0.00 0.00 0.00 0.00 0.00 0.00 0.00 0.00 0.00 0.00 0.00
0.01 0.01 0.01 0.01 0.01 0.02 0.02 0.04 0.05 0.04 0.03 0.04 0.02 0.03 0.04 0.02 0.02 0.01 0.01 0.01 0.01 0.01 0.00 0.00 0.00 0.00 0.00 0.00 0.00 0.00 0.00 0.00 0.00 0.00 0.00 0.00 0.00 0.00 0.00 0.00 0.00 0.00 0.00 0.00
0.02 0.01 0.01 0.01 0.02 0.03 0.03 0.05 0.06 0.05 0.04 0.02 0.01 0.02 0.02 0.01 0.00 0.00 0.00 0.01 0.00 0.00 0.00 0.00 0.00 0.00 0.00 0.00 0.00 0.00 0.00 0.00 0.00 0.00 0.00 0.00 0.00 0.00 0.00 0.00 0.00 0.00 0.00 0.00
0.01 0.02 0.01 0.01 0.01 0.03 0.03 0.03 0.03 0.02 0.02 0.02 0.00 0.00 0.00 0.00 0.00 0.00 0.00 0.00 0.00 0.00 0.00 0.00 0.00 0.00 0.00 0.00 0.00 0.00 0.00 0.00 0.00 0.00 0.00 0.00 0.00 0.00 0.00 0.00 0.00 0.01 0.00 0.00
0.01 0.01 0.01 0.01 0.01 0.02 0.02 0.02 0.01 0.01 0.00 0.01 0.00 0.00 0.00 0.00 0.00 0.00 0.00 0.00 0.00 0.00 0.00 0.00 0.00 0.00 0.00 0.00 0.00 0.00 0.00 0.00 0.00 0.00 0.01 0.01 0.00 0.00 0.00 0.00 0.00 0.01 0.01 0.00
0.00 0.01 0.01 0.01 0.02 0.01 0.01 0.01 0.01 0.00 0.01 0.01 0.00 0.00 0.00 0.00 0.00 0.00 0.00 0.00 0.01 0.00 0.00 0.00 0.00 0.00 0.00 0.00 0.00 0.00 0.00 0.00 0.00 0.00 0.01 0.01 0.01 0.01 0.01 0.01 0.01 0.01 0.01 0.00
0.00 0.00 0.01 0.01 0.01 0.01 0.01 0.01 0.00 0.01 0.00 0.00 0.00 0.00 0.00 0.00 0.00 0.00 0.00 0.00 0.00 0.00 0.00 0.00 0.00 0.00 0.00 0.00 0.00 0.00 0.00 0.00 0.00 0.01 0.01 0.01 0.01 0.01 0.01 0.01 0.01 0.01 0.01 0.00
0.00 0.00 0.00 0.00 0.00 0.00 0.00 0.00 0.00 0.01 0.01 0.00 0.00 0.00 0.00 0.00 0.00 0.00 0.00 0.00 0.00 0.00 0.00 0.00 0.00 0.00 0.00 0.00 0.00 0.00 0.00 0.01 0.02 0.01 0.01 0.02 0.02 0.02 0.02 0.01 0.02 0.01 0.00 0.00
0.00 0.00 0.00 0.00 0.00 0.00 0.00 0.00 0.00 0.00 0.00 0.00 0.00 0.00 0.00 0.00 0.00 0.00 0.00 0.00 0.00 0.00 0.00 0.00 0.00 0.00 0.00 0.00 0.00 0.00 0.00 0.00 0.02 0.02 0.02 0.02 0.03 0.02 0.02 0.02 0.01 0.00 0.00 0.00
0.00 0.00 0.00 0.00 0.00 0.00 0.00 0.00 0.00 0.00 0.00 0.00 0.00 0.00 0.00 0.00 0.00 0.00 0.00 0.00 0.00 0.00 0.00 0.00 0.00 0.00 0.00 0.00 0.00 0.00 0.00 0.00 0.01 0.02 0.02 0.03 0.04 0.03 0.03 0.02 0.01 0.00 0.00 0.00
0.00 0.00 0.00 0.00 0.00 0.00 0.00 0.00 0.00 0.00 0.00 0.00 0.00 0.00 0.00 0.00 0.00 0.00 0.00 0.00 0.00 0.00 0.00 0.00 0.00 0.00 0.00 0.00 0.00 0.00 0.00 0.01 0.01 0.03 0.04 0.04 0.04 0.04 0.03 0.01 0.01 0.00 0.00 0.00
0.00 0.00 0.00 0.00 0.00 0.00 0.00 0.00 0.00 0.00 0.00 0.00 0.00 0.00 0.00 0.00 0.00 0.00 0.00 0.00 0.00 0.00 0.00 0.00 0.00 0.00 0.00 0.00 0.00 0.00 0.00 0.01 0.02 0.03 0.04 0.04 0.03 0.03 0.02 0.01 0.01 0.00 0.00 0.00
0.00 0.00 0.00 0.00 0.00 0.00 0.00 0.00 0.00 0.00 0.00 0.00 0.00 0.00 0.00 0.00 0.00 0.00 0.00 0.00 0.00 0.00 0.00 0.00 0.00 0.00 0.00 0.00 0.00 0.00 0.00 0.01 0.01 0.02 0.02 0.02 0.02 0.01 0.01 0.01 0.00 0.00 0.00 0.00
0.00 0.00 0.00 0.00 0.00 0.00 0.00 0.00 0.00 0.00 0.00 0.00 0.00 0.00 0.00 0.00 0.00 0.00 0.00 0.00 0.00 0.00 0.00 0.00 0.00 0.00 0.00 0.00 0.00 0.00 0.00 0.00 0.00 0.01 0.02 0.01 0.01 0.01 0.01 0.01 0.00 0.00 0.00 0.00
0.00 0.00 0.00 0.00 0.00 0.00 0.00 0.00 0.00 0.00 0.00 0.00 0.00 0.00 0.00 0.00 0.00 0.00 0.00 0.00 0.00 0.00 0.00 0.00 0.00 0.00 0.00 0.00 0.00 0.00 0.00 0.00 0.00 0.00 0.01 0.00 0.01 0.01 0.01 0.00 0.00 0.00 0.00 0.00
0.00 0.00 0.00 0.00 0.00 0.00 0.00 0.00 0.00 0.00 0.00 0.00 0.00 0.00 0.00 0.00 0.00 0.00 0.00 0.00 0.00 0.00 0.00 0.00 0.00 0.00 0.00 0.00 0.00 0.00 0.00 0.00 0.00 0.00 0.00 0.00 0.00 0.00 0.00 0.00 0.00 0.00 0.00 0.00
0.00 0.00 0.00 0.00 0.00 0.00 0.00 0.00 0.00 0.00 0.00 0.00 0.00 0.00 0.00 0.00 0.00 0.00 0.00 0.00 0.00 0.00 0.00 0.00 0.00 0.00 0.00 0.00 0.00 0.00 0.00 0.00 0.00 0.00 0.00 0.00 0.00 0.00 0.00 0.00 0.00 0.00 0.00 0.00
0.00 0.00 0.00 0.00 0.00 0.00 0.00 0.00 0.00 0.00 0.00 0.00 0.00 0.00 0.00 0.00 0.00 0.00 0.00 0.00 0.00 0.00 0.00 0.00 0.00 0.00 0.00 0.00 0.00 0.00 0.00 0.00 0.00 0.00 0.00 0.00 0.00 0.00 0.00 0.00 0.00 0.00 0.00 0.00
0.00 0.00 0.00 0.00 0.00 0.00 0.00 0.00 0.00 0.00 0.00 0.00 0.00 0.00 0.00 0.00 0.00 0.00 0.00 0.00 0.00 0.00 0.00 0.00 0.00 0.00 0.00 0.00 0.00 0.00 0.00 0.00 0.00 0.00 0.00 0.00 0.00 0.00 0.00 0.00 0.01 0.00 0.00 0.00
0.00 0.00 0.00 0.00 0.00 0.00 0.00 0.00 0.00 0.00 0.00 0.00 0.00 0.00 0.00 0.00 0.00 0.00 0.00 0.00 0.00 0.00 0.00 0.00 0.00 0.00 0.00 0.00 0.00 0.00 0.00 0.00 0.00 0.00 0.00 0.00 0.00 0.00 0.00 0.00 0.00 0.00 0.00 0.00
0.00 0.00 0.00 0.00 0.00 0.00 0.00 0.00 0.00 0.00 0.00 0.00 0.00 0.00 0.00 0.00 0.00 0.00 0.00 0.00 0.00 0.00 0.00 0.00 0.00 0.00 0.00 0.00 0.00 0.00 0.00 0.00 0.00 0.00 0.00 0.00 0.00 0.00 0.00 0.00 0.00 0.00 0.00 0.00
0.00 0.00 0.00 0.00 0.00 0.00 0.00 0.00 0.00 0.00 0.00 0.00 0.00 0.00 0.00 0.00 0.00 0.00 0.00 0.00 0.00 0.00 0.00 0.00 0.00 0.00 0.00 0.00 0.00 0.00 0.00 0.00 0.00 0.00 0.00 0.00 0.00 0.00 0.00 0.00 0.00 0.00 0.00 0.00
MSLP
1014.28 1014.82 1015.44 1016.17 1017.01 1017.92 1018.84 1019.70 1020.38 1020.82 1020.95 1020.77 1020.30 1019.63 1018.85 1018.08 1017.42 1016.93 1016.64 1016.54 1016.59 1016.73 1016.91 1017.08 1017.21 1017.31 1017.38 1017.46 1017.57 1017.71 1017.89 1018.10 1018.32 1018.52 1018.69 1018.82 1018.90 1018.96 1019.00 1019.02 1019.02 1019.01 1018.98 1018.91
1014.90 1015.42 1016.03 1016.75 1017.59 1018.50 1019.43 1020.30 1020.99 1021.43 1021.55 1021.33 1020.81 1020.05 1019.18 1018.30 1017.52 1016.93 1016.57 1016.42 1016.45 1016.60 1016.80 1017.00 1017.17 1017.29 1017.37 1017.43 1017.51 1017.62 1017.78 1017.98 1018.21 1018.44 1018.66 1018.84 1018.99 1019.10 1019.18 1019.22 1019.24 1019.23 1019.19 1019.12
1015.46 1015.95 1016.53 1017.23 1018.04 1018.94 1019.86 1020.71 1021.39 1021.80 1021.88 1021.61 1021.03 1020.20 1019.25 1018.29 1017.45 1016.80 1016.39 1016.22 1016.26 1016.43 1016.67 1016.91 1017.10 1017.23 1017.31 1017.35 1017.40 1017.48 1017.62 1017.81 1018.04 1018.31 1018.57 1018.82 1019.03 1019.19 1019.31 1019.39 1019.43 1019.44 1019.42 1019.36
1015.92 1016.38 1016.93 1017.60 1018.39 1019.26 1020.15 1020.96 1021.59 1021.95 1021.96 1021.63 1020.98 1020.09 1019.07 1018.07 1017.19 1016.52 1016.11 1015.96 1016.03 1016.24 1016.53 1016.80 1017.02 1017.16 1017.23 1017.26 1017.28 1017.33 1017.44 1017.62 1017.87 1018.16 1018.47 1018.77 1019.04 1019.26 1019.43 1019.55 1019.62 1019.66 1019.66 1019.63
1016.28 1016.70 1017.23 1017.88 1018.64 1019.49 1020.33 1021.09 1021.65 1021.92 1021.86 1021.44 1020.72 1019.76 1018.70 1017.67 1016.78 1016.13 1015.75 1015.65 1015.77 1016.05 1016.39 1016.71 1016.97 1017.13 1017.19 1017.21 1017.20 1017.23 1017.32 1017.49 1017.75 1018.06 1018.41 1018.75 1019.07 1019.34 1019.55 1019.71 1019.82 1019.89 1019.93 1019.94
1016.53 1016.93 1017.45 1018.10 1018.85 1019.66 1020.46 1021.14 1021.62 1021.79 1021.63 1021.12 1020.31 1019.30 1018.21 1017.16 1016.29 1015.67 1015.35 1015.32 1015.52 1015.87 1016.28 1016.66 1016.96 1017.15 1017.23 1017.24 1017.22 1017.23 1017.31 1017.47 1017.73 1018.06 1018.42 1018.80 1019.14 1019.45 1019.69 1019.88 1020.03 1020.13 1020.21 1020.25
1016.68 1017.09 1017.62 1018.28 1019.03 1019.81 1020.56 1021.17 1021.54 1021.61 1021.34 1020.73 1019.84 1018.78 1017.65 1016.61 1015.77 1015.20 1014.95 1014.99 1015.27 1015.71 1016.20 1016.65 1017.00 1017.23 1017.34 1017.36 1017.35 1017.36 1017.43 1017.59 1017.85 1018.18 1018.55 1018.93 1019.29 1019.61 1019.87 1020.08 1020.24 1020.37 1020.47 1020.56
1016.72 1017.17 1017.73 1018.41 1019.17 1019.93 1020.63 1021.16 1021.44 1021.40 1021.02 1020.32 1019.36 1018.25 1017.11 1016.08 1015.27 1014.76 1014.57 1014.69 1015.05 1015.56 1016.12 1016.65 1017.07 1017.35 1017.51 1017.57 1017.58 1017.60 1017.68 1017.84 1018.09 1018.41 1018.78 1019.16 1019.51 1019.82 1020.08 1020.29 1020.46 1020.60 1020.72 1020.82
1016.68 1017.17 1017.77 1018.48 1019.24 1019.98 1020.62 1021.08 1021.27 1021.13 1020.67 1019.89 1018.88 1017.74 1016.60 1015.58 1014.81 1014.34 1014.21 1014.39 1014.81 1015.38 1016.02 1016.61 1017.09 1017.44 1017.66 1017.77 1017.83 1017.89 1017.99 1018.17 1018.41 1018.73 1019.08 1019.44 1019.77 1020.06 1020.30 1020.49 1020.65 1020.79 1020.91 1021.03
1016.53 1017.07 1017.71 1018.43 1019.18 1019.89 1020.48 1020.87 1020.98 1020.77 1020.24 1019.42 1018.39 1017.24 1016.11 1015.13 1014.39 1013.96 1013.86 1014.07 1014.52 1015.14 1015.81 1016.45 1017.00 1017.42 1017.71 1017.89 1018.02 1018.13 1018.27 1018.47 1018.73 1019.04 1019.38 1019.72 1020.02 1020.29 1020.51 1020.68 1020.82 1020.95 1021.07 1021.19
1016.28 1016.84 1017.50 1018.21 1018.93 1019.60 1020.14 1020.46 1020.51 1020.26 1019.70 1018.87 1017.85 1016.73 1015.64 1014.69 1013.98 1013.57 1013.48 1013.69 1014.15 1014.76 1015.45 1016.12 1016.71 1017.19 1017.56 1017.83 1018.03 1018.22 1018.42 1018.66 1018.95 1019.27 1019.60 1019.93 1020.22 1020.46 1020.66 1020.81 1020.94 1021.06 1021.18 1021.31
1015.93 1016.49 1017.12 1017.80 1018.47 1019.08 1019.55 1019.82 1019.83 1019.56 1019.01 1018.21 1017.24 1016.18 1015.14 1014.24 1013.56 1013.16 1013.06 1013.24 1013.66 1014.24 1014.90 1015.58 1016.19 1016.72 1017.16 1017.51 1017.81 1018.08 1018.36 1018.66 1018.99 1019.34 1019.69 1020.01 1020.30 1020.54 1020.73 1020.89 1021.02 1021.14 1021.26 1021.39
1015.50 1016.03 1016.60 1017.21 1017.81 1018.33 1018.74 1018.96 1018.95 1018.69 1018.18 1017.45 1016.55 1015.58 1014.62 1013.78 1013.13 1012.72 1012.59 1012.71 1013.06 1013.58 1014.19 1014.83 1015.45 1016.01 1016.50 1016.94 1017.32 1017.69 1018.05 1018.43 1018.82 1019.21 1019.59 1019.94 1020.25 1020.50 1020.71 1020.88 1021.03 1021.17 1021.31 1021.46
1015.04 1015.50 1015.99 1016.50 1017.00 1017.44 1017.78 1017.96 1017.95 1017.72 1017.27 1016.63 1015.84 1014.98 1014.11 1013.33 1012.71 1012.29 1012.10 1012.15 1012.41 1012.83 1013.36 1013.94 1014.54 1015.11 1015.64 1016.14 1016.61 1017.07 1017.52 1017.97 1018.43 1018.88 1019.31 1019.70 1020.04 1020.34 1020.58 1020.79 1020.97 1021.14 1021.32 1021.50
1014.60 1014.97 1015.37 1015.78 1016.17 1016.53 1016.80 1016.95 1016.94 1016.76 1016.39 1015.85 1015.18 1014.43 1013.66 1012.95 1012.35 1011.91 1011.67 1011.63 1011.77 1012.08 1012.50 1013.01 1013.55 1014.11 1014.67 1015.21 1015.75 1016.28 1016.81 1017.34 1017.87 1018.38 1018.86 1019.31 1019.70 1020.04 1020.33 1020.59 1020.82 1021.04 1021.25 1021.46
1014.25 1014.53 1014.84 1015.15 1015.46 1015.74 1015.96 1016.09 1016.09 1015.96 1015.67 1015.24 1014.68 1014.03 1013.36 1012.70 1012.12 1011.66 1011.35 1011.21 1011.24 1011.42 1011.73 1012.13 1012.61 1013.13 1013.68 1014.25 1014.83 1015.41 1016.01 1016.61 1017.19 1017.76 1018.30 1018.79 1019.24 1019.63 1019.97 1020.28 1020.56 1020.83 1021.08 1021.33
1014.04 1014.27 1014.51 1014.76 1015.00 1015.23 1015.41 1015.53 1015.55 1015.46 1015.24 1014.89 1014.43 1013.87 1013.27 1012.65 1012.08 1011.59 1011.21 1010.97 1010.88 1010.93 1011.11 1011.41 1011.79 1012.26 1012.77 1013.34 1013.93 1014.55 1015.19 1015.83 1016.46 1017.07 1017.65 1018.19 1018.68 1019.11 1019.50 1019.85 1020.18 1020.48 1020.77 1021.05
1014.03 1014.24 1014.46 1014.68 1014.90 1015.10 1015.27 1015.38 1015.42 1015.36 1015.19 1014.90 1014.50 1014.00 1013.44 1012.85 1012.27 1011.74 1011.29 1010.95 1010.73 1010.66 1010.71 1010.88 1011.17 1011.55 1012.01 1012.54 1013.12 1013.74 1014.39 1015.05 1015.70 1016.34 1016.95 1017.51 1018.03 1018.50 1018.92 1019.30 1019.65 1019.98 1020.29 1020.59
1014.22 1014.47 1014.71 1014.95 1015.18 1015.39 1015.57 1015.68 1015.73 1015.68 1015.53 1015.27 1014.89 1014.42 1013.88 1013.28 1012.68 1012.10 1011.57 1011.14 1010.81 1010.60 1010.52 1010.57 1010.74 1011.02 1011.40 1011.87 1012.40 1012.99 1013.62 1014.28 1014.94 1015.58 1016.20 1016.78 1017.31 1017.79 1018.23 1018.63 1019.00 1019.34 1019.66 1019.96
1014.62 1014.94 1015.25 1015.55 1015.82 1016.06 1016.25 1016.37 1016.41 1016.36 1016.20 1015.93 1015.56 1015.08 1014.52 1013.90 1013.26 1012.62 1012.03 1011.50 1011.06 1010.73 1010.52 1010.44 1010.48 1010.64 1010.92 1011.29 1011.76 1012.29 1012.88 1013.50 1014.14 1014.77 1015.39 1015.97 1016.51 1017.00 1017.44 1017.85 1018.21 1018.56 1018.88 1019.19
1015.19 1015.61 1016.02 1016.40 1016.73 1017.00 1017.21 1017.33 1017.36 1017.28 1017.09 1016.79 1016.38 1015.87 1015.28 1014.62 1013.94 1013.24 1012.58 1011.96 1011.42 1010.97 1010.64 1010.42 1010.33 1010.36 1010.51 1010.78 1011.14 1011.59 1012.12 1012.69 1013.29 1013.90 1014.50 1015.08 1015.61 1016.11 1016.56 1016.96 1017.33 1017.67 1018.00 1018.31
1015.91 1016.44 1016.94 1017.39 1017.78 1018.08 1018.29 1018.40 1018.40 1018.28 1018.05 1017.70 1017.24 1016.69 1016.06 1015.36 1014.63 1013.88 1013.15 1012.46 1011.83 1011.28 1010.82 1010.47 1010.24 1010.13 1010.15 1010.28 1010.53 1010.88 1011.31 1011.82 1012.37 1012.95 1013.52 1014.09 1014.62 1015.12 1015.57 1015.99 1016.36 1016.71 1017.04 1017.36
1016.72 1017.35 1017.92 1018.43 1018.84 1019.16 1019.36 1019.43 1019.39 1019.22 1018.93 1018.52 1018.02 1017.42 1016.75 1016.02 1015.26 1014.48 1013.70 1012.95 1012.24 1011.59 1011.02 1010.55 1010.18 1009.93 1009.80 1009.79 1009.90 1010.13 1010.47 1010.89 1011.37 1011.90 1012.45 1013.00 1013.53 1014.03 1014.50 1014.93 1015.32 1015.69 1016.04 1016.39
1017.61 1018.28 1018.89 1019.41 1019.82 1020.11 1020.27 1020.30 1020.20 1019.96 1019.62 1019.17 1018.62 1017.99 1017.30 1016.55 1015.77 1014.97 1014.17 1013.38 1012.61 1011.89 1011.23 1010.64 1010.14 1009.75 1009.47 1009.31 1009.28 1009.37 1009.59 1009.91 1010.31 1010.78 1011.29 1011.82 1012.34 1012.85 1013.33 1013.78 1014.21 1014.61 1014.99 1015.37
1018.53 1019.21 1019.80 1020.29 1020.65 1020.88 1020.97 1020.93 1020.76 1020.46 1020.06 1019.57 1019.00 1018.36 1017.66 1016.92 1016.15 1015.35 1014.55 1013.74 1012.94 1012.16 1011.42 1010.73 1010.12 1009.59 1009.17 1008.86 1008.68 1008.63 1008.72 1008.92 1009.22 1009.61 1010.06 1010.55 1011.06 1011.56 1012.06 1012.54 1013.00 1013.44 1013.87 1014.30
1019.45 1020.08 1020.61 1021.02 1021.29 1021.43 1021.43 1021.30 1021.05 1020.70 1020.26 1019.74 1019.15 1018.52 1017.84 1017.12 1016.38 1015.61 1014.82 1014.01 1013.20 1012.39 1011.59 1010.83 1010.11 1009.47 1008.91 1008.46 1008.14 1007.94 1007.88 1007.95 1008.14 1008.42 1008.79 1009.22 1009.69 1010.18 1010.68 1011.18 1011.68 1012.17 1012.65 1013.14
Thickness
5712 5709 5702 5707 5713 5714 5713 5708 5703 5702 5709 5710 5708 5708 5712 5717 5719 5721 5725 5728 5729 5730 5732 5733 5733 5734 5735 5734 5733 5731 5729 5728 5727 5726 5725 5723 5722 5721 5719 5717 5716 5716 5716 5716
5704 5698 5707 5713 5714 5713 5711 5704 5699 5700 5706 5706 5704 5705 5712 5716 5718 5721 5724 5726 5728 5728 5729 5730 5731 5731 5732 5731 5730 5729 5727 5726 5725 5723 5723 5721 5719 5719 5717 5715 5714 5714 5714 5714
5699 5701 5710 5709 5707 5706 5706 5705 5702 5699 5701 5706 5705 5701 5707 5714 5719 5720 5723 5726 5729 5728 5729 5729 5729 5729 5729 5728 5727 5726 5725 5723 5722 5721 5721 5719 5717 5717 5716 5713 5712 5711 5711 5711
5701 5705 5706 5706 5704 5707 5699 5709 5708 5704 5701 5698 5704 5695 5709 5715 5715 5718 5721 5725 5727 5728 5729 5729 5727 5727 5726 5726 5725 5725 5722 5722 5721 5719 5718 5717 5714 5713 5712 5712 5711 5710 5709 5709
5699 5704 5705 5703 5705 5709 5705 5710 5710 5708 5705 5702 5706 5703 5710 5715 5714 5720 5724 5726 5728 5728 5729 5728 5727 5726 5726 5724 5722 5721 5720 5718 5717 5716 5714 5713 5712 5711 5711 5710 5709 5709 5708 5707
5705 5710 5711 5709 5711 5712 5709 5706 5705 5707 5707 5694 5705 5703 5706 5718 5723 5727 5727 5728 5729 5729 5728 5727 5726 5724 5723 5720 5717 5716 5715 5713 5712 5712 5711 5710 5708 5707 5706 5706 5706 5706 5706 5705
5699 5705 5710 5714 5705 5706 5709 5701 5691 5688 5689 5696 5709 5704 5712 5730 5735 5734 5732 5732 5732 5731 5729 5725 5723 5721 5719 5716 5714 5713 5711 5710 5709 5709 5709 5708 5706 5706 5705 5705 5703 5704 5704 5704
5697 5694 5707 5713 5712 5707 5709 5708 5696 5688 5691 5700 5704 5705 5723 5733 5735 5737 5736 5735 5732 5730 5729 5726 5723 5721 5718 5715 5713 5712 5710 5708 5706 5706 5706 5705 5704 5703 5703 5702 5702 5702 5702 5702
5705 5699 5709 5713 5717 5716 5707 5709 5716 5709 5705 5701 5708 5718 5727 5731 5730 5732 5733 5732 5730 5729 5727 5725 5722 5720 5717 5715 5712 5710 5708 5706 5704 5704 5703 5702 5701 5700 5700 5700 5700 5700 5700 5699
5717 5703 5706 5710 5714 5712 5717 5716 5709 5705 5694 5695 5704 5713 5723 5727 5730 5731 5732 5731 5731 5730 5728 5725 5722 5719 5717 5715 5712 5709 5707 5705 5702 5701 5701 5699 5698 5697 5697 5698 5697 5697 5698 5696
5721 5710 5702 5706 5707 5708 5707 5707 5710 5711 5710 5701 5698 5716 5742 5740 5740 5737 5736 5736 5733 5730 5728 5725 5721 5719 5716 5713 5710 5707 5705 5703 5701 5700 5699 5697 5696 5695 5695 5695 5695 5694 5694 5694
5720 5718 5708 5710 5718 5720 5718 5717 5714 5704 5705 5708 5708 5720 5744 5745 5745 5743 5740 5738 5735 5731 5729 5725 5722 5718 5714 5712 5710 5708 5706 5703 5700 5699 5697 5696 5695 5695 5695 5694 5693 5693 5692 5691
5719 5715 5703 5700 5704 5711 5711 5715 5716 5716 5714 5711 5707 5721 5742 5744 5742 5742 5740 5737 5734 5730 5727 5724 5720 5717 5714 5712 5710 5708 5706 5703 5700 5698 5697 5696 5696 5695 5694 5693 5691 5690 5689 5688
5725 5721 5714 5704 5711 5717 5712 5713 5714 5714 5710 5714 5719 5727 5738 5740 5740 5740 5739 5737 5734 5730 5726 5723 5719 5717 5714 5712 5710 5708 5705 5702 5699 5698 5696 5696 5696 5694 5692 5690 5688 5687 5686 5685
5724 5720 5722 5723 5723 5721 5719 5718 5716 5715 5721 5719 5727 5730 5740 5745 5745 5743 5740 5736 5732 5729 5726 5723 5720 5718 5715 5712 5710 5708 5705 5702 5700 5697 5696 5695 5694 5691 5689 5687 5685 5683 5681 5680
5724 5720 5720 5717 5721 5720 5717 5721 5721 5719 5722 5724 5727 5731 5749 5751 5748 5743 5740 5735 5731 5729 5727 5725 5722 5719 5716 5713 5711 5708 5704 5702 5700 5697 5695 5692 5690 5688 5685 5683 5681 5679 5676 5675
5722 5719 5713 5714 5718 5715 5713 5728 5727 5725 5730 5730 5727 5739 5748 5742 5741 5742 5741 5737 5735 5732 5729 5726 5723 5720 5718 5716 5713 5707 5705 5702 5699 5696 5693 5689 5687 5684 5682 5679 5677 5674 5672 5670
5721 5718 5715 5712 5710 5697 5729 5743 5738 5732 5735 5739 5741 5745 5745 5744 5744 5745 5745 5741 5737 5734 5731 5727 5724 5721 5718 5716 5711 5708 5704 5700 5697 5694 5690 5687 5684 5681 5678 5675 5672 5670 5669 5666
5721 5715 5710 5708 5703 5711 5728 5736 5733 5728 5731 5743 5741 5742 5742 5741 5739 5740 5744 5743 5741 5737 5734 5730 5726 5722 5718 5714 5710 5706 5702 5698 5694 5691 5688 5685 5681 5677 5674 5671 5668 5666 5663 5661
5708 5712 5709 5703 5696 5698 5723 5736 5738 5731 5725 5744 5743 5740 5738 5734 5731 5740 5744 5740 5738 5735 5732 5728 5724 5721 5716 5712 5708 5703 5700 5696 5692 5688 5685 5682 5678 5674 5670 5667 5664 5661 5658 5655
5700 5699 5700 5701 5699 5712 5732 5731 5729 5714 5725 5741 5741 5740 5736 5735 5742 5744 5741 5737 5735 5731 5727 5723 5720 5716 5712 5709 5704 5700 5697 5693 5690 5685 5681 5678 5674 5670 5666 5662 5659 5656 5652 5649
5706 5701 5700 5701 5695 5704 5725 5723 5722 5729 5740 5739 5738 5738 5736 5738 5738 5737 5735 5732 5729 5725 5721 5718 5714 5710 5707 5704 5700 5697 5693 5690 5685 5680 5675 5672 5669 5665 5661 5656 5653 5650 5647 5643
5706 5710 5711 5709 5712 5720 5721 5724 5728 5729 5731 5733 5734 5734 5733 5731 5730 5730 5728 5726 5724 5720 5716 5713 5709 5705 5702 5699 5696 5692 5688 5684 5679 5674 5670 5667 5664 5659 5655 5651 5647 5644 5640 5638
5704 5701 5702 5705 5712 5716 5717 5719 5721 5723 5725 5728 5729 5729 5728 5726 5726 5724 5723 5721 5718 5715 5712 5708 5704 5700 5697 5694 5691 5688 5684 5679 5674 5670 5666 5662 5658 5654 5651 5646 5642 5638 5635 5632
5697 5693 5696 5699 5708 5710 5713 5714 5717 5719 5721 5722 5724 5724 5723 5722 5721 5720 5718 5716 5713 5710 5707 5703 5701 5697 5693 5689 5685 5682 5678 5674 5670 5666 5661 5657 5653 5649 5644 5640 5636 5632 5629 5625
5692 5691 5691 5696 5705 5705 5708 5712 5712 5712 5714 5716 5717 5717 5718 5717 5715 5714 5713 5710 5707 5704 5702 5698 5695 5691 5689 5685 5680 5676 5672 5668 5665 5661 5656 5651 5647 5641 5637 5633 5629 5623 5619 5614